TimeCDT,TemperatureF,Dew PointF,Humidity,Sea Level PressureIn,VisibilityMPH,Wind Direction,Wind SpeedMPH,Gust SpeedMPH,PrecipitationIn,Events,Conditions,WindDirDegrees,DateUTC
12:53 AM,55.9,37.9,51,29.98,10.0,SSE,13.8,-,N/A,,Overcast,150,2013-05-07 05:53:00
1:53 AM,53.1,37.9,57,29.98,10.0,SSE,10.4,-,N/A,,Partly Cloudy,160,2013-05-07 06:53:00
2:53 AM,52.0,39.0,61,29.97,10.0,South,13.8,-,N/A,,Mostly Cloudy,170,2013-05-07 07:53:00
3:53 AM,52.0,37.9,59,29.95,10.0,South,17.3,-,N/A,,Clear,170,2013-05-07 08:53:00
4:53 AM,55.0,37.0,51,29.94,10.0,South,19.6,-,N/A,,Clear,190,2013-05-07 09:53:00
5:53 AM,55.0,37.0,51,29.94,10.0,SSW,15.0,-,N/A,,Partly Cloudy,200,2013-05-07 10:53:00
6:53 AM,54.0,37.0,53,29.95,10.0,South,11.5,-,N/A,,Mostly Cloudy,190,2013-05-07 11:53:00
7:53 AM,55.0,39.0,55,29.98,10.0,Calm,Calm,-,N/A,,Overcast,0,2013-05-07 12:53:00
8:53 AM,60.1,42.1,51,29.98,10.0,SW,8.1,-,N/A,,Scattered Clouds,220,2013-05-07 13:53:00
9:53 AM,64.0,44.1,48,29.96,10.0,WSW,8.1,-,N/A,,Clear,240,2013-05-07 14:53:00
10:53 AM,68.0,43.0,40,29.95,10.0,SSW,6.9,-,N/A,,Clear,210,2013-05-07 15:53:00
11:53 AM,70.0,43.0,38,29.96,10.0,SSE,9.2,-,N/A,,Partly Cloudy,160,2013-05-07 16:53:00
12:53 PM,71.1,41.0,34,29.94,10.0,SSE,12.7,-,N/A,,Clear,150,2013-05-07 17:53:00
1:53 PM,73.0,41.0,31,29.94,10.0,South,16.1,24.2,N/A,,Clear,170,2013-05-07 18:53:00
2:53 PM,73.0,39.0,29,29.92,10.0,SE,20.7,32.2,N/A,,Clear,140,2013-05-07 19:53:00
3:53 PM,72.0,41.0,33,29.91,10.0,SE,12.7,25.3,N/A,,Clear,140,2013-05-07 20:53:00
4:53 PM,73.0,39.9,30,29.89,10.0,SSE,8.1,19.6,N/A,,Clear,150,2013-05-07 21:53:00
5:53 PM,70.0,44.1,39,29.88,10.0,SE,13.8,20.7,N/A,,Overcast,130,2013-05-07 22:53:00
6:53 PM,68.0,46.0,45,29.87,10.0,SE,13.8,-,N/A,,Partly Cloudy,140,2013-05-07 23:53:00
7:31 PM,66.2,46.4,49,29.90,10.0,SE,11.5,-,N/A,Thunderstorm,Mostly Cloudy,140,2013-05-08 00:31:00
7:46 PM,66.2,46.4,49,29.90,10.0,SSE,11.5,-,N/A,,Mostly Cloudy,150,2013-05-08 00:46:00
7:53 PM,64.9,46.9,52,29.88,10.0,SE,11.5,-,N/A,,Overcast,140,2013-05-08 00:53:00
8:53 PM,57.0,48.9,74,29.93,8.0,WNW,11.5,21.9,0.03,Rain,Light Rain,300,2013-05-08 01:53:00
9:28 PM,55.4,51.8,88,29.93,8.0,West,9.2,-,0.05,Rain-Thunderstorm,Rain,260,2013-05-08 02:28:00
9:42 PM,55.4,51.8,88,29.93,7.0,WSW,8.1,-,0.08,Rain,Rain,240,2013-05-08 02:42:00
9:53 PM,55.0,51.1,86,29.92,5.0,SSW,10.4,-,0.12,Rain,Rain,210,2013-05-08 02:53:00
10:53 PM,57.0,52.0,83,29.87,10.0,South,17.3,21.9,0.06,,Overcast,170,2013-05-08 03:53:00
11:53 PM,57.9,46.9,67,29.84,10.0,SSE,18.4,29.9,0.00,,Scattered Clouds,160,2013-05-08 04:53:00